TSC501 CYUL-MMAA

Flight info

Callsign TSC501
Flight time N/A
Altitude 34000
Route KESKA SAVEX KANUR TUKIR Q806 BOBTA DERLO Q951 SVM EDGEE FWA BWG IGB MEI J22 MCB WAHOO M345 AXEXO UM345 PAZ UJ102 ALUNI UT163 VOLOM UT167 OTMOS UT56 CUA UJ55 ANALU ANAL1B
Aircraft A320/M-VGDW/C

Departure

Time 2026-05-05 20:40
Airport Montreal / Pierre Elliott Trudeau International Airport (CYUL)

Arrival

Time N/A
Airport General Juan N. Álvarez International Airport (MMAA)
Time Latitude Longitude Altitude Speed Heading
2026-05-05 20:16 45.45938 -73.74952 110 ft 0 kts 181°
2026-05-05 20:28 45.45937 -73.74952 110 ft 0 kts 181°
2026-05-05 20:29 45.45946 -73.74951 109 ft 2 kts 181°
2026-05-05 20:29 45.45963 -73.74951 109 ft 2 kts 181°
2026-05-05 20:29 45.45980 -73.74953 110 ft 3 kts 152°
2026-05-05 20:29 45.45994 -73.74968 109 ft 3 kts 116°
2026-05-05 20:30 45.45998 -73.74980 109 ft 0 kts 115°
2026-05-05 20:32 45.45998 -73.74979 109 ft 1 kts 115°
2026-05-05 20:32 45.45989 -73.74891 111 ft 17 kts 87°
2026-05-05 20:32 45.45965 -73.74735 110 ft 15 kts 118°
2026-05-05 20:33 45.45960 -73.74600 110 ft 13 kts 68°
2026-05-05 20:33 45.45985 -73.74488 108 ft 12 kts 70°
2026-05-05 20:33 45.45992 -73.74363 106 ft 16 kts 115°
2026-05-05 20:33 45.45985 -73.74249 102 ft 10 kts 30°
2026-05-05 20:34 45.46055 -73.74164 105 ft 16 kts 42°
2026-05-05 20:34 45.46135 -73.74063 105 ft 15 kts 41°
2026-05-05 20:34 45.46208 -73.73968 106 ft 13 kts 46°
2026-05-05 20:34 45.46263 -73.73893 106 ft 10 kts 41°
2026-05-05 20:35 45.46347 -73.73787 108 ft 23 kts 44°
2026-05-05 20:35 45.46479 -73.73608 113 ft 25 kts 42°
2026-05-05 20:35 45.46605 -73.73448 113 ft 23 kts 44°
2026-05-05 20:35 45.46719 -73.73301 112 ft 21 kts 45°
2026-05-05 20:36 45.46817 -73.73167 114 ft 18 kts 43°
2026-05-05 20:36 45.46899 -73.73058 115 ft 15 kts 43°
2026-05-05 20:36 45.46965 -73.72973 117 ft 12 kts 41°
2026-05-05 20:36 45.47031 -73.72886 117 ft 15 kts 44°
2026-05-05 20:37 45.47118 -73.72768 119 ft 19 kts 41°
2026-05-05 20:37 45.47188 -73.72684 118 ft 21 kts 41°
2026-05-05 20:37 45.47354 -73.72465 120 ft 27 kts 41°
2026-05-05 20:37 45.47450 -73.72335 120 ft 30 kts 41°
2026-05-05 20:38 45.47595 -73.72142 124 ft 27 kts 44°
2026-05-05 20:38 45.47738 -73.71958 128 ft 17 kts 42°
2026-05-05 20:38 45.47797 -73.71884 128 ft 17 kts 42°
2026-05-05 20:38 45.47752 -73.71732 125 ft 14 kts 138°
2026-05-05 20:39 45.47681 -73.71662 121 ft 11 kts 165°
2026-05-05 20:39 45.47624 -73.71721 124 ft 10 kts 222°
2026-05-05 20:39 45.47498 -73.71883 119 ft 54 kts 223°
2026-05-05 20:39 45.47235 -73.72219 119 ft 95 kts 222°
2026-05-05 20:40 45.46629 -73.73010 113 ft 143 kts 224°
2026-05-05 20:40 45.45860 -73.74057 487 ft 155 kts 221°
2026-05-05 20:40 45.45162 -73.75312 729 ft 183 kts 250°
2026-05-05 20:40 45.45261 -73.77314 748 ft 233 kts 285°
2026-05-05 20:41 45.46089 -73.79554 974 ft 271 kts 297°
2026-05-05 20:41 45.47128 -73.81669 2346 ft 253 kts 299°
2026-05-05 20:41 45.48144 -73.83674 3503 ft 246 kts 299°
2026-05-05 20:41 45.49114 -73.85664 4477 ft 244 kts 298°
2026-05-05 20:42 45.50046 -73.87679 5318 ft 243 kts 296°
2026-05-05 20:42 45.50953 -73.89716 6154 ft 244 kts 294°
2026-05-05 20:42 45.51848 -73.91776 6916 ft 245 kts 294°
2026-05-05 20:42 45.52738 -73.93862 7420 ft 248 kts 293°
2026-05-05 20:43 45.53631 -73.95979 8166 ft 250 kts 292°
2026-05-05 20:43 45.54531 -73.98129 8930 ft 254 kts 292°
2026-05-05 20:43 45.55438 -74.00305 9654 ft 257 kts 291°
2026-05-05 20:43 45.56357 -74.02512 10217 ft 265 kts 291°
2026-05-05 20:44 45.57332 -74.04875 10390 ft 288 kts 292°
2026-05-05 20:44 45.58386 -74.07434 10522 ft 310 kts 292°
2026-05-05 20:44 45.59486 -74.10188 10686 ft 325 kts 288°
2026-05-05 20:44 45.60194 -74.13235 11161 ft 323 kts 275°
2026-05-05 20:45 45.59886 -74.19502 12357 ft 319 kts 249°
2026-05-05 20:45 45.58993 -74.22416 12966 ft 321 kts 244°
2026-05-05 20:45 45.58057 -74.25323 13574 ft 324 kts 244°
2026-05-05 20:46 45.57114 -74.28251 14128 ft 326 kts 244°
2026-05-05 20:46 45.56167 -74.31200 14688 ft 328 kts 244°
2026-05-05 20:46 45.55216 -74.34174 15246 ft 330 kts 244°
2026-05-05 20:46 45.54261 -74.37166 15792 ft 333 kts 244°
2026-05-05 20:47 45.53298 -74.40175 16352 ft 335 kts 244°
2026-05-05 20:47 45.52326 -74.43209 16901 ft 337 kts 244°
2026-05-05 20:47 45.51404 -74.46298 17443 ft 341 kts 249°
2026-05-05 20:47 45.50852 -74.49611 17970 ft 346 kts 255°
2026-05-05 20:48 45.50393 -74.52988 18430 ft 348 kts 255°
2026-05-05 20:48 45.49923 -74.56388 18879 ft 350 kts 255°
2026-05-05 20:48 45.49449 -74.59800 19310 ft 353 kts 255°
2026-05-05 20:48 45.48974 -74.63198 19726 ft 355 kts 255°
2026-05-05 20:49 45.48489 -74.66656 20161 ft 357 kts 255°
2026-05-05 20:49 45.48001 -74.70137 20583 ft 359 kts 255°
2026-05-05 20:49 45.47502 -74.73684 20995 ft 361 kts 255°
2026-05-05 20:49 45.47013 -74.77157 21380 ft 364 kts 254°
2026-05-05 20:50 45.46512 -74.80700 21762 ft 366 kts 254°
2026-05-05 20:50 45.46006 -74.84265 22144 ft 368 kts 254°
2026-05-05 20:50 45.45498 -74.87846 22525 ft 370 kts 254°
2026-05-05 20:50 45.44982 -74.91455 22882 ft 372 kts 254°
2026-05-05 20:51 45.44462 -74.95085 23221 ft 375 kts 254°
2026-05-05 20:51 45.43938 -74.98735 23525 ft 376 kts 254°
2026-05-05 20:51 45.43414 -75.02385 23832 ft 377 kts 255°
2026-05-05 20:51 45.42886 -75.06048 24144 ft 378 kts 255°
2026-05-05 20:52 45.42359 -75.09717 24457 ft 379 kts 255°
2026-05-05 20:52 45.41830 -75.13392 24762 ft 379 kts 255°
2026-05-05 20:52 45.41296 -75.17076 25062 ft 380 kts 255°
2026-05-05 20:52 45.40760 -75.20759 25348 ft 381 kts 255°
2026-05-05 20:53 45.40218 -75.24456 25632 ft 382 kts 255°
2026-05-05 20:53 45.39675 -75.28153 25852 ft 383 kts 255°
2026-05-05 20:53 45.39130 -75.31872 26071 ft 384 kts 256°
2026-05-05 20:53 45.38584 -75.35592 26297 ft 385 kts 256°
2026-05-05 20:54 45.38034 -75.39322 26519 ft 386 kts 256°
2026-05-05 20:54 45.37480 -75.43059 26744 ft 386 kts 256°
2026-05-05 20:54 45.36925 -75.46797 26964 ft 386 kts 256°
2026-05-05 20:54 45.36366 -75.50544 27168 ft 387 kts 256°
2026-05-05 20:55 45.35809 -75.54275 27445 ft 385 kts 256°
2026-05-05 20:55 45.35254 -75.57986 27746 ft 383 kts 256°
2026-05-05 20:55 45.34699 -75.61685 28045 ft 381 kts 256°
2026-05-05 20:55 45.34147 -75.65360 28356 ft 380 kts 256°
2026-05-05 20:56 45.33598 -75.69022 28692 ft 378 kts 256°
2026-05-05 20:56 45.33051 -75.72663 29007 ft 376 kts 256°
2026-05-05 20:56 45.32513 -75.76242 29314 ft 374 kts 256°
2026-05-05 20:56 45.31970 -75.79846 29601 ft 373 kts 256°
2026-05-05 20:57 45.31427 -75.83440 29878 ft 371 kts 256°
2026-05-05 20:57 45.30882 -75.87017 30121 ft 370 kts 256°
2026-05-05 20:57 45.30337 -75.90579 30370 ft 369 kts 256°
2026-05-05 20:57 45.29791 -75.94131 30606 ft 367 kts 256°
2026-05-05 20:58 45.29249 -75.97662 30848 ft 365 kts 257°
2026-05-05 20:58 45.28712 -76.01182 31090 ft 364 kts 257°
2026-05-05 20:58 45.28174 -76.04690 31329 ft 363 kts 257°
2026-05-05 20:58 45.27637 -76.08177 31562 ft 361 kts 257°
2026-05-05 20:59 45.27101 -76.11654 31798 ft 360 kts 257°
2026-05-05 20:59 45.26565 -76.15125 32038 ft 359 kts 257°
2026-05-05 20:59 45.26030 -76.18571 32276 ft 357 kts 257°
2026-05-05 20:59 45.25484 -76.21999 32513 ft 356 kts 254°
2026-05-05 21:00 45.24634 -76.25288 32743 ft 355 kts 246°
2026-05-05 21:00 45.23444 -76.28363 32962 ft 355 kts 244°
2026-05-05 21:00 45.22236 -76.31418 33158 ft 354 kts 244°
2026-05-05 21:00 45.21032 -76.34471 33373 ft 353 kts 244°
2026-05-05 21:01 45.19838 -76.37512 33584 ft 352 kts 244°
2026-05-05 21:01 45.18647 -76.40551 33695 ft 353 kts 244°
2026-05-05 21:01 45.16251 -76.46636 33713 ft 354 kts 244°
2026-05-05 21:02 45.13847 -76.52741 33723 ft 354 kts 244°
2026-05-05 21:02 45.11457 -76.58796 33726 ft 355 kts 244°
2026-05-05 21:03 45.09038 -76.64897 33731 ft 355 kts 244°
2026-05-05 21:03 45.06608 -76.70991 33720 ft 355 kts 244°
2026-05-05 21:04 45.04178 -76.77084 33723 ft 356 kts 244°
2026-05-05 21:04 45.01749 -76.83174 33741 ft 356 kts 244°
2026-05-05 21:05 44.99315 -76.89267 33740 ft 356 kts 244°
2026-05-05 21:05 44.96874 -76.95345 33735 ft 356 kts 244°
2026-05-05 21:06 44.94425 -77.01430 33751 ft 356 kts 244°
2026-05-05 21:06 44.91977 -77.07507 33754 ft 356 kts 244°
2026-05-05 21:07 44.89534 -77.13545 33739 ft 356 kts 244°
2026-05-05 21:07 44.87064 -77.19650 33754 ft 357 kts 244°
2026-05-05 21:08 44.84617 -77.25692 33756 ft 357 kts 244°
2026-05-05 21:08 44.82143 -77.31766 33750 ft 357 kts 244°
2026-05-05 21:09 44.79665 -77.37839 33753 ft 358 kts 244°
2026-05-05 21:09 44.77192 -77.43920 33744 ft 358 kts 244°
2026-05-05 21:10 44.74709 -77.50014 33748 ft 359 kts 244°
2026-05-05 21:10 44.72212 -77.56104 33755 ft 360 kts 244°
2026-05-05 21:11 44.69707 -77.62192 33760 ft 360 kts 244°
2026-05-05 21:11 44.67197 -77.68283 33769 ft 360 kts 244°
2026-05-05 21:12 44.64686 -77.74378 33769 ft 360 kts 244°
2026-05-05 21:12 44.62171 -77.80463 33780 ft 360 kts 244°
2026-05-05 21:13 44.59652 -77.86545 33787 ft 360 kts 244°
2026-05-05 21:13 44.57133 -77.92626 33792 ft 361 kts 244°
2026-05-05 21:14 44.54611 -77.98704 33798 ft 361 kts 244°
2026-05-05 21:14 44.52098 -78.04736 33792 ft 361 kts 244°
2026-05-05 21:15 44.49565 -78.10802 33811 ft 361 kts 244°
2026-05-05 21:15 44.47027 -78.16867 33807 ft 361 kts 244°
2026-05-05 21:16 44.44489 -78.22925 33818 ft 361 kts 244°
2026-05-05 21:16 44.41944 -78.28970 33820 ft 360 kts 244°
2026-05-05 21:17 44.39403 -78.35019 33817 ft 360 kts 244°
2026-05-05 21:17 44.36866 -78.41058 33819 ft 361 kts 244°
2026-05-05 21:18 44.34309 -78.47098 33821 ft 361 kts 244°
2026-05-05 21:18 44.31748 -78.53129 33822 ft 361 kts 244°
2026-05-05 21:19 44.29184 -78.59173 33819 ft 361 kts 244°
2026-05-05 21:19 44.26616 -78.65206 33820 ft 362 kts 244°
2026-05-05 21:20 44.24047 -78.71251 33816 ft 362 kts 244°
2026-05-05 21:20 44.21467 -78.77296 33822 ft 363 kts 243°
2026-05-05 21:21 44.18893 -78.83291 33827 ft 363 kts 243°
2026-05-05 21:21 44.16300 -78.89324 33825 ft 363 kts 243°
2026-05-05 21:22 44.13708 -78.95349 33824 ft 363 kts 243°
2026-05-05 21:22 44.11024 -79.01310 33823 ft 364 kts 242°
2026-05-05 21:23 44.08304 -79.07251 33818 ft 364 kts 242°
2026-05-05 21:23 44.05593 -79.13191 33817 ft 364 kts 242°
2026-05-05 21:24 44.02888 -79.19136 33810 ft 364 kts 242°